Location: Saint-Palais-sur-Mer
(45.6429°N, 1.0859°W)
Time: 00:53:53
(UTC+01:00)

Tiros 1 despin weight - Pass Details

Date: 16 February 2026
Orbit: 556 x 593 km, 48.2° (Epoch: 13 March)

Event Time Altitude Azimuth Distance (km) Brightness Sun altitude
Rises 19:41:35 0° 278° (W) 2,733 ? -12.7°
Reaches altitude 10° 19:43:51 10° 282° (WNW) 1,837 ? -13.1°
Maximum altitude 19:48:00 61° 3° (N) 636 ? -13.8°
Enters shadow 19:50:23 24° 78° (ENE) 1,177 ? -14.2°
Drops below altitude 10° 19:52:10 10° 85° (E) 1,843 - -14.5°
Sets 19:54:27 0° 89° (E) 2,742 - -14.9°
